Regional Weather Roundup
Issued by NWS Sterling, VA

Home | Current Version | Previous Version | Graphics & Text | Print | Product List | Glossary On
Versions: 1 2 3 4 5 6 7 8 9 10 11 12 13 14 15 16 17 18 19 20 21 22 23 24 25 26 27 28 29 30 31 32 33 34 35 36 37 38 39 40 41 42 43 44 45 46 47 48 49 50
000
ASUS41 KLWX 301810
RWRLWX

REGIONAL WEATHER ROUNDUP
NATIONAL WEATHER SERVICE BALTIMORE MD/WASHINGTON DC
200 PM EDT SAT APR 30 2016

Note: "FAIR" indicates few or no clouds below 12,000 feet
with no significant weather and/or obstructions to visibility.
 TC=TEMPERATURE CELSIUS

 * =Non NWS site. Station does not report precipitation (e.g. rain,
    snow, etc.), thunder, or fog.

DCZ001-MDZ009-015-VAZ040>042-051-053>054-301900-
WASHINGTON METRO

CITY           SKY/WX    TMP DP  RH WIND       PRES   REMARKS
WASHINGTON NAT CLOUDY    56  47  71 CALM      30.22F
DULLES         CLOUDY    55  47  74 SE8       30.20S
ANDREWS AFB    CLOUDY    55  47  73 VRB1      30.20F
FT BELVOIR     CLOUDY    56  47  71 VRB5      30.20F
QUANTICO       CLOUDY    58  48  69 NE5       30.21F
COLLEGE PARK*  CLOUDY    54  45  71 CALM      30.22R
LEESBURG*      CLOUDY    55  50  82 SE5       30.21S
MANASSAS*      CLOUDY    55  48  76 CALM      30.20F
GAITHERSBURG*  CLOUDY    54  45  71 CALM      30.25R

$$

MDZ006>007-011-014-301900-
BALTIMORE METRO

CITY           SKY/WX    TMP DP  RH WIND       PRES   REMARKS
BWI AIRPORT    PTSUNNY   57  45  64 VRB7      30.21R
MD SCIENCE CTR   N/A     58  44  60 MISG      30.22R
MARTIN STATE   MOSUNNY   61  50  67 SE8       30.22S
ANNAPOLIS      CLOUDY    55  47  74 MISG      30.21S
FORT MEADE*    CLOUDY    54  45  71 E6        30.24R

$$

MDZ012-015-019>023-301900-
MARYLAND EASTERN SHORE

CITY           SKY/WX    TMP DP  RH WIND       PRES   REMARKS
OCEAN CITY     CLOUDY    55  46  71 E13       30.22R
SALISBURY      CLOUDY    58  47  66 NE7       30.20S
CAMBRIDGE*     PTSUNNY   54  46  76 E5        30.21S
EASTON*        CLOUDY   N/A N/A N/A SE41      30.24S

$$

MDZ017>025-301900-
SOUTHERN MARYLAND

CITY           SKY/WX    TMP DP  RH WIND       PRES   REMARKS
PATUXENT RIVER CLOUDY    56  47  71 SE3       30.21S
ST INIGOES       N/A    N/A N/A N/A MISG        N/A
LEONARDTOWN*   CLOUDY    54  46  76 CALM      30.22S

$$

MDZ003>005-301900-
NORTH CENTRAL MARYLAND

CITY           SKY/WX    TMP DP  RH WIND       PRES   REMARKS
FREDERICK*     CLOUDY    54  50  87 CALM      30.24S FOG
HAGERSTOWN APT CLOUDY    54  46  74 E8        30.19R
WESTMINSTER*   CLOUDY    57  54  88 S3        30.20R

$$

MDZ501>502-301900-
WESTERN MARYLAND

CITY           SKY/WX    TMP DP  RH WIND       PRES   REMARKS
OAKLAND*       CLOUDY    48  46  93 SE12      30.10F FOG
CUMBERLAND*    PTSUNNY   57  50  77 SE5       30.18F

$$

VAZ025>031-301900-
SHENANDOAH VALLEY

CITY           SKY/WX    TMP DP  RH WIND       PRES   REMARKS
WINCHESTER*    CLOUDY    55  50  82 SE8       30.18S
FRONT ROYAL*   CLOUDY    55  50  82 CALM      30.16S
LURAY*         CLOUDY    57  54  88 W3        30.16S
NEW MARKET*    CLOUDY    55  51  89 CALM      30.15S
STAUNTON*      CLOUDY    58  53  84 SE5       30.18S
WAYNESBORO*    CLOUDY    54  49  83 MISG      30.16F

$$

WVZ021-048>050-054>055-301900-
EASTERN WEST VIRGINIA PANHANDLE

CITY           SKY/WX    TMP DP  RH WIND       PRES   REMARKS
MARTINSBURG    CLOUDY    53  49  86 E6        30.18S FOG
PETERSBURG*    CLOUDY    60  53  76 CALM      30.13F

$$

VAZ036>039-050-301900-
CENTRAL FOOTHILLS

CITY           SKY/WX    TMP DP  RH WIND       PRES   REMARKS
CHARLOTTESVILL CLOUDY    57  49  74 VRB3      30.18S
CULPEPER*      CLOUDY    58  51  78 SE6       30.19F
ORANGE*        CLOUDY    57  52  82 CALM      30.20F
GORDONSVILLE*  CLOUDY    58  51  77 E5        30.17F
WARRENTON*     CLOUDY    57  47  67 E6        30.19F

$$

VAZ055>057-301900-
NORTH AND CENTRAL PIEDMONT

CITY           SKY/WX    TMP DP  RH WIND       PRES   REMARKS
FREDERICKSBRG* CLOUDY    57  51  80 NE3       30.19F
STAFFORD*      CLOUDY    57  48  73 NE7       30.24S

$$

NCZ024-NYZ072-PAZ021-071-VAZ022-071-301900-
OTHER REGIONAL OBSERVATIONS

CITY           SKY/WX    TMP DP  RH WIND       PRES   REMARKS
NEW YORK CITY  SUNNY     62  38  40 MISG      30.22R
PHILADELPHIA   PTSUNNY   63  42  46 SE5       30.22S
PITTSBURGH     CLOUDY    65  45  48 VRB5      30.06F
ROANOKE        DRIZZLE   56  54  93 E9        30.18S FOG
RICHMOND       CLOUDY    58  50  75 SE9       30.19S
RALEIGH        CLOUDY    63  56  78 E8        30.14F

$$

ANZ530>537-301900-
MARINE OBSERVATIONS

STATION/POSITION TIME  TEMP    WIND        PRES
                       AIR SEA DIR/SP/G
                 (UTC) (F)     (DEG/KT/KT) (MB)
THOMAS PT LIGHT  1800   54 57  230/  5/  5 1024.6R
BALT KEY BRIDGE  1700   54     110/  5/  7 1022.9R
COVE POINT       1700   53     240/  1/  3 1023.5R
LEWISETTA        1700   54 59  100/  6/  7 1022.6S
SOLOMONS ISLAND  1700   54 60  120/  1/  4   N/A
PINEY POINT      1700          160/  4/  5   N/A

$$




USA.gov is the U.S. government's official web portal to all federal, state and local government web resources and services.